Satellite-Ground Cal/Val Site Overpasses Predictions

Prediction of Satellite NPP Overpassing Cal/Val Site: Antarctic Dome C

Ground Cal/Val Site Location: Latitude: -75.10, Longitude: 123.35; Satellite-Ground Site NADIR distance within 100 km.

Table of predicted overpasses for the next 14.0 days since TLE Epoch: 3/2/2013
Interval Starting Time Ending Time Minimum Distance Time Minimum Distance (km)
1 03/02/2013 14:47:20 03/02/2013 14:47:49 03/02/2013 14:47:34 12.16
2 03/04/2013 07:30:12 03/04/2013 07:30:41 03/04/2013 07:30:27 1.24
3 03/07/2013 14:53:43 03/07/2013 14:54:11 03/07/2013 14:53:57 24.80
4 03/08/2013 14:35:02 03/08/2013 14:35:18 03/08/2013 14:35:10 82.24
5 03/09/2013 07:36:35 03/09/2013 07:37:02 03/09/2013 07:36:49 36.15
6 03/10/2013 07:17:51 03/10/2013 07:18:10 03/10/2013 07:18:00 73.85
7 03/12/2013 15:00:09 03/12/2013 15:00:31 03/12/2013 15:00:20 62.26
8 03/13/2013 14:41:18 03/13/2013 14:41:44 03/13/2013 14:41:31 46.90
9 03/14/2013 07:43:01 03/14/2013 07:43:21 03/14/2013 07:43:11 71.56
